Home   Weather   Bangor   Past weeks
Flag for USA

Past Weather in Bangor, Maine, USA — Yesterday and Last 2 Weeks

Now
37 °F

Light rain. Mostly cloudy.


Feels Like: 29 °F
Forecast: 43 / 36 °F
Wind: 13 mph from North

Location: Bangor International Airport

Current Time: Apr 2, 2020 at 3:05:25 am

Latest Report: Apr 2, 2020 at 1:53 am


Visibility: 10 mi

Pressure: 29.66 "Hg

Humidity: 86%

Dew Point: 33 °F

Location of BangorLocation

Past Weather in Bangor — Graph

°F

Bangor Temperature Yesterday

Maximum temperature yesterday: 42 °F (at 1:53 pm)
Minimum temperature yesterday: 32 °F (at 6:44 am)
Average temperature yesterday: 37 °F

High & Low Weather Summary for the Past Weeks

 TemperatureHumidityPressure
High54 °F (Mar 20, 10:53 pm)97% (Mar 20, 5:53 am)30.77 "Hg (Mar 20, 5:53 am)
Low13 °F (Mar 23, 4:53 am)16% (Mar 28, 3:53 pm)29.50 "Hg (Mar 20, 7:53 pm)
Average36 °F67%30.15 "Hg
* Reported Mar 18 1:53 am — Apr 2 1:53 am, Bangor. Weather by CustomWeather, © 2020

Note: Actual official high and low records may vary slightly from our data, if they occured in-between our weather recording intervals... More about our weather records

Bangor Weather History for the Previous 24 Hours

Scroll right to see more
 ConditionsComfort  
Time TempWeatherWind HumidityBarometerVisibility
1:53 am
Thu, Apr 2
37 °FLight rain. Mostly cloudy.13 mph86%29.66 "Hg10 mi
1:38 am37 °FLight rain. Mostly cloudy.15 mph89%29.67 "Hg9 mi
1:03 am37 °FLight rain. Mostly cloudy.15 mph86%29.70 "Hg10 mi
11:53 pm
Wed, Apr 1
37 °FLight rain. Overcast.14 mph86%29.73 "Hg10 mi
10:53 pm37 °FLight rain. Overcast.13 mph86%29.75 "Hg7 mi
10:28 pm38 °FLight rain. Overcast.16 mph83%29.75 "Hg7 mi
9:53 pm38 °FLight rain. Low clouds.15 mph86%29.77 "Hg7 mi
8:53 pm38 °FDrizzle. Low clouds.13 mph86%29.78 "Hg7 mi
7:53 pm37 °FDrizzle. Fog.12 mph93%29.78 "Hg5 mi
7:07 pm38 °FFog.13 mph86%29.79 "Hg4 mi
6:26 pm39 °FMostly cloudy.14 mph79%29.80 "Hg9 mi
5:53 pm40 °FMostly cloudy.14 mph77%29.80 "Hg10 mi
4:53 pm41 °FOvercast.14 mph70%29.80 "Hg10 mi
3:53 pm41 °FOvercast.14 mph74%29.80 "Hg10 mi
2:53 pm41 °FOvercast.13 mph70%29.80 "Hg10 mi
1:53 pm42 °FMostly cloudy.13 mph71%29.82 "Hg10 mi
12:53 pm40 °FMostly cloudy.13 mph77%29.85 "Hg10 mi
12:29 pm39 °FLight rain. Mostly cloudy.13 mph79%29.85 "Hg9 mi
11:53 am38 °FOvercast.13 mph76%29.87 "Hg10 mi
11:24 am39 °FMostly cloudy.14 mph79%29.87 "Hg10 mi
10:53 am37 °FMore clouds than sun.12 mph82%29.88 "Hg10 mi
10:24 am36 °FMostly cloudy.13 mph82%29.88 "Hg10 mi
9:53 am35 °FMore clouds than sun.14 mph85%29.88 "Hg9 mi
9:44 am35 °FLight snow. Mostly cloudy.14 mph85%29.88 "Hg9 mi
8:58 am34 °FLight snow. Fog.12 mph88%29.88 "Hg3 mi
8:07 am33 °FLight snow. Fog.10 mph88%29.90 "Hg1 mi
7:53 am33 °FLight snow. Fog.10 mph88%29.92 "Hg1 mi
7:26 am33 °FLight snow. Fog.8 mph88%29.93 "Hg1 mi
7:19 am33 °FLight snow. Fog.8 mph88%29.93 "Hg1 mi
6:44 am32 °FLight snow. Ice fog.8 mph92%29.92 "Hg1 mi
6:14 am33 °FLight snow. Fog.8 mph85%29.92 "Hg2 mi
5:53 am33 °FLight snow. Overcast.9 mph85%29.92 "Hg9 mi
4:53 am33 °FLight snow. Mostly cloudy.9 mph82%29.92 "Hg9 mi
3:53 am34 °FLight snow. Overcast.13 mph73%29.92 "Hg10 mi
Weather by CustomWeather, © 2020

See weather overview

Advertising